User: anonymous   Login
Location: Cheadle
(51.0146°N, 113.5417°W)
Time: 17:44:40
(UTC+00:00)
Language:

CZ-4B R/B - Orbit

View from above orbital plane
View from above orbital plane
View from above satellite
View from above satellite

Ground track
Ground track

The orbit data is extracted from the following two-line orbital elements,

1 32959U 08026B   24149.11340944  .00000235  00000-0  83832-4 0  9998
2 32959  98.9509 176.4429 0069151 341.5506  85.7726 14.42405575842049
Epoch (UTC): 28 May 2024 02:43:18
Eccentricity: 0.0069151
inclination: 98.9509°
perigee height: 701 km
apogee height: 800 km
right ascension of ascending node: 176.4429°
argument of perigee: 341.5506°
revolutions per day: 14.42405575
mean anomaly at epoch: 85.7726°
orbit number at epoch: 84204

The dashed part of the orbit path shows where the satellite is in the earth's shadow,  

DLR